This is the latest recevied weather packets stored in our database for station/object KI7CSN-13. If no packets are shown the sender has not sent any weather packets the latest 1 day(s).
| Time | Temp. | Humidity | Pressure | Rain* | Wind** | Luminosity | Snow |
|---|---|---|---|---|---|---|---|
| 1777996360 | 13.33° C | 45% | 978.9 hPa | 0 mm | 3.58 m/s, 165° | - | - |
| 1777996060 | 13.33° C | 44% | 978.9 hPa | 0 mm | 2.68 m/s, 177° | - | - |
| 1777995761 | 12.78° C | 46% | 978.9 hPa | 0 mm | 4.02 m/s, 171° | - | - |
| 1777995461 | 13.33° C | 46% | 978.8 hPa | 0 mm | 5.36 m/s, 167° | - | - |
| 1777995161 | 12.78° C | 46% | 978.9 hPa | 0 mm | 3.13 m/s, 180° | - | - |
| 1777994861 | 12.22° C | 47% | 979 hPa | 0 mm | 7.15 m/s, 158° | - | - |
| 1777994561 | 12.78° C | 46% | 979 hPa | 0 mm | 4.47 m/s, 147° | - | - |
| 1777994261 | 12.22° C | 46% | 979 hPa | 0 mm | 3.13 m/s, 189° | - | - |
| 1777993961 | 12.22° C | 48% | 979 hPa | 0 mm | 2.24 m/s, 161° | - | - |
| 1777993661 | 12.22° C | 49% | 979 hPa | 0 mm | 3.13 m/s, 156° | - | - |
| 1777993361 | 11.67° C | 50% | 979 hPa | 0 mm | 2.24 m/s, 210° | - | - |
| 1777993061 | 11.67° C | 51% | 979 hPa | 0 mm | 1.34 m/s, 158° | - | - |
| 1777992761 | 11.11° C | 52% | 979 hPa | 0 mm | 2.24 m/s, 154° | - | - |
| 1777992461 | 11.11° C | 53% | 978.9 hPa | 0 mm | 1.79 m/s, 189° | - | - |
| 1777992161 | 11.11° C | 54% | 978.9 hPa | 0 mm | 2.24 m/s, 168° | - | - |
| 1777991861 | 11.11° C | 54% | 978.9 hPa | 0 mm | 2.24 m/s, 180° | - | - |
| 1777991561 | 10.56° C | 56% | 979 hPa | 0 mm | 0.89 m/s, 192° | - | - |
| 1777991261 | 10.56° C | 57% | 978.9 hPa | 0 mm | 2.68 m/s, 170° | - | - |
| 1777990961 | 10° C | 58% | 978.9 hPa | 0 mm | 0 m/s | - | - |
| 1777990661 | 10° C | 59% | 978.9 hPa | 0 mm | 1.79 m/s, 147° | - | - |
| 1777990361 | 9.44° C | 61% | 978.9 hPa | 0 mm | 0 m/s | - | - |
| 1777990061 | 9.44° C | 61% | 978.9 hPa | 0 mm | 0 m/s | - | - |
| 1777989761 | 9.44° C | 62% | 978.8 hPa | 0 mm | 0 m/s | - | - |
| 1777989461 | 9.44° C | 62% | 978.8 hPa | 0 mm | 0 m/s | - | - |
| 1777989161 | 8.89° C | 62% | 978.7 hPa | 0 mm | 0 m/s | - | - |
* Rain latest hour (hover to see other rain measurements)
** Current wind speed in m/s (hover to see current wind gust speed)